GLD1620 SBSP-SBRJ

Flight info

Callsign GLD1620
Flight time 0h 40m
Altitude 27000
Route BAIA3A NIBRU UZ171 KEVUN ASAL1A
Aircraft A20N/M-SDE2E3FGHIRWXY/LB1

Departure

Time 2026-05-06 21:52
Airport Congonhas–Deputado Freitas Nobre Airport (SBSP)

Arrival

Time 2026-05-06 22:32
Airport Santos Dumont Airport (SBRJ)
Time Latitude Longitude Altitude Speed Heading
2026-05-06 21:36 -23.62628 -46.65887 2600 ft 0 kts 237°
2026-05-06 21:44 -23.62626 -46.65884 2600 ft 3 kts 237°
2026-05-06 21:44 -23.62609 -46.65863 2600 ft 4 kts 206°
2026-05-06 21:44 -23.62585 -46.65859 2600 ft 3 kts 151°
2026-05-06 21:44 -23.62578 -46.65864 2600 ft 0 kts 148°
2026-05-06 21:48 -23.62579 -46.65858 2601 ft 1 kts 99°
2026-05-06 21:48 -23.62567 -46.65846 2601 ft 4 kts 29°
2026-05-06 21:48 -23.62513 -46.65859 2601 ft 11 kts 334°
2026-05-06 21:49 -23.62432 -46.65912 2601 ft 15 kts 317°
2026-05-06 21:49 -23.62341 -46.65991 2600 ft 18 kts 331°
2026-05-06 21:49 -23.62223 -46.66058 2599 ft 20 kts 332°
2026-05-06 21:49 -23.62134 -46.66115 2589 ft 0 kts 328°
2026-05-06 21:50 -23.62133 -46.66116 2590 ft 1 kts 328°
2026-05-06 21:50 -23.62116 -46.66128 2593 ft 5 kts 327°
2026-05-06 21:50 -23.62069 -46.66123 2596 ft 10 kts 26°
2026-05-06 21:51 -23.62051 -46.66071 2594 ft 7 kts 140°
2026-05-06 21:51 -23.62227 -46.65955 2599 ft 69 kts 147°
2026-05-06 21:51 -23.62608 -46.65689 2605 ft 120 kts 146°
2026-05-06 21:51 -23.63413 -46.65105 3036 ft 145 kts 144°
2026-05-06 21:52 -23.64295 -46.64425 3720 ft 161 kts 142°
2026-05-06 21:52 -23.65236 -46.63709 4506 ft 168 kts 145°
2026-05-06 21:52 -23.66278 -46.63007 4994 ft 190 kts 147°
2026-05-06 21:52 -23.67516 -46.62187 5165 ft 216 kts 146°
2026-05-06 21:53 -23.68791 -46.61331 4984 ft 215 kts 146°
2026-05-06 21:53 -23.69980 -46.60338 4946 ft 217 kts 128°
2026-05-06 21:53 -23.70745 -46.58879 5031 ft 231 kts 104°
2026-05-06 21:53 -23.71032 -46.57063 5386 ft 254 kts 97°
2026-05-06 21:54 -23.71292 -46.55125 6227 ft 260 kts 97°
2026-05-06 21:54 -23.71558 -46.53154 7070 ft 265 kts 97°
2026-05-06 21:54 -23.71828 -46.51141 7944 ft 268 kts 97°
2026-05-06 21:54 -23.71981 -46.49086 8779 ft 272 kts 88°
2026-05-06 21:55 -23.71787 -46.47029 9623 ft 276 kts 79°
2026-05-06 21:55 -23.71467 -46.44913 10457 ft 280 kts 79°
2026-05-06 21:55 -23.71152 -46.42766 10947 ft 298 kts 80°
2026-05-06 21:55 -23.70817 -46.40431 11244 ft 321 kts 80°
2026-05-06 21:56 -23.70467 -46.37964 11519 ft 340 kts 81°
2026-05-06 21:56 -23.70102 -46.35385 12254 ft 344 kts 81°
2026-05-06 21:56 -23.69733 -46.32786 13042 ft 347 kts 81°
2026-05-06 21:56 -23.69361 -46.30177 13801 ft 351 kts 81°
2026-05-06 21:57 -23.68981 -46.27516 14438 ft 356 kts 82°
2026-05-06 21:57 -23.68597 -46.24833 15094 ft 360 kts 82°
2026-05-06 21:57 -23.68207 -46.22109 15728 ft 364 kts 82°
2026-05-06 21:57 -23.67820 -46.19402 16347 ft 369 kts 82°
2026-05-06 21:58 -23.67420 -46.16616 16955 ft 373 kts 82°
2026-05-06 21:58 -23.67011 -46.13774 17577 ft 378 kts 82°
2026-05-06 21:58 -23.66601 -46.10919 18191 ft 382 kts 83°
2026-05-06 21:58 -23.66183 -46.08006 18757 ft 386 kts 83°
2026-05-06 21:59 -23.65767 -46.05099 19284 ft 390 kts 83°
2026-05-06 21:59 -23.65352 -46.02202 19772 ft 395 kts 83°
2026-05-06 21:59 -23.64923 -45.99223 20311 ft 398 kts 83°
2026-05-06 21:59 -23.64493 -45.96239 20832 ft 402 kts 83°
2026-05-06 22:00 -23.64054 -45.93195 21361 ft 406 kts 83°
2026-05-06 22:00 -23.63606 -45.90092 21882 ft 411 kts 83°
2026-05-06 22:00 -23.63159 -45.87005 22406 ft 415 kts 83°
2026-05-06 22:00 -23.62708 -45.83892 22921 ft 419 kts 83°
2026-05-06 22:01 -23.62249 -45.80726 23444 ft 423 kts 83°
2026-05-06 22:01 -23.61788 -45.77556 23912 ft 427 kts 83°
2026-05-06 22:01 -23.61318 -45.74328 24347 ft 431 kts 83°
2026-05-06 22:01 -23.60848 -45.71100 24783 ft 435 kts 83°
2026-05-06 22:02 -23.60373 -45.67851 25192 ft 438 kts 84°
2026-05-06 22:02 -23.59889 -45.64526 25612 ft 442 kts 84°
2026-05-06 22:02 -23.59405 -45.61217 26032 ft 446 kts 84°
2026-05-06 22:02 -23.58913 -45.57860 26450 ft 449 kts 84°
2026-05-06 22:03 -23.58416 -45.54473 26827 ft 453 kts 84°
2026-05-06 22:03 -23.57916 -45.51071 26959 ft 455 kts 84°
2026-05-06 22:03 -23.57413 -45.47674 26978 ft 454 kts 83°
2026-05-06 22:03 -23.56753 -45.44301 26978 ft 456 kts 80°
2026-05-06 22:04 -23.56036 -45.40942 26981 ft 456 kts 80°
2026-05-06 22:04 -23.55321 -45.37565 26980 ft 456 kts 80°
2026-05-06 22:04 -23.54611 -45.34202 26979 ft 456 kts 80°
2026-05-06 22:04 -23.53898 -45.30835 26981 ft 456 kts 80°
2026-05-06 22:05 -23.53184 -45.27465 26979 ft 456 kts 80°
2026-05-06 22:05 -23.52476 -45.24131 26977 ft 456 kts 80°
2026-05-06 22:05 -23.51771 -45.20816 26971 ft 455 kts 80°
2026-05-06 22:05 -23.51065 -45.17503 26908 ft 447 kts 80°
2026-05-06 22:06 -23.50357 -45.14191 26801 ft 436 kts 80°
2026-05-06 22:06 -23.49683 -45.11033 26685 ft 423 kts 80°
2026-05-06 22:06 -23.49025 -45.07957 26557 ft 409 kts 80°
2026-05-06 22:06 -23.48391 -45.04991 26439 ft 396 kts 80°
2026-05-06 22:07 -23.47776 -45.02117 26317 ft 383 kts 80°
2026-05-06 22:07 -23.47183 -44.99340 26049 ft 376 kts 80°
2026-05-06 22:07 -23.46595 -44.96580 25648 ft 373 kts 79°
2026-05-06 22:07 -23.46006 -44.93828 25259 ft 370 kts 79°
2026-05-06 22:08 -23.45412 -44.91127 24879 ft 367 kts 79°
2026-05-06 22:08 -23.44811 -44.88424 24504 ft 364 kts 78°
2026-05-06 22:08 -23.44218 -44.85763 24134 ft 361 kts 78°
2026-05-06 22:08 -23.43629 -44.83118 23771 ft 358 kts 78°
2026-05-06 22:09 -23.43046 -44.80496 23351 ft 355 kts 78°
2026-05-06 22:09 -23.42466 -44.77893 22929 ft 352 kts 78°
2026-05-06 22:09 -23.41893 -44.75319 22514 ft 349 kts 78°
2026-05-06 22:09 -23.41321 -44.72754 22109 ft 347 kts 78°
2026-05-06 22:10 -23.40754 -44.70211 21715 ft 344 kts 78°
2026-05-06 22:10 -23.40194 -44.67706 21323 ft 341 kts 78°
2026-05-06 22:10 -23.39633 -44.65194 20926 ft 339 kts 78°
2026-05-06 22:10 -23.39080 -44.62718 20551 ft 336 kts 78°
2026-05-06 22:11 -23.38527 -44.60248 20171 ft 334 kts 78°
2026-05-06 22:11 -23.37989 -44.57844 19805 ft 331 kts 78°
2026-05-06 22:11 -23.37436 -44.55378 19437 ft 329 kts 78°
2026-05-06 22:11 -23.36904 -44.53006 19078 ft 327 kts 78°
2026-05-06 22:12 -23.36369 -44.50621 18723 ft 324 kts 78°
2026-05-06 22:12 -23.35836 -44.48248 18376 ft 322 kts 78°
2026-05-06 22:12 -23.35304 -44.45883 17968 ft 320 kts 78°
2026-05-06 22:12 -23.34771 -44.43512 17558 ft 318 kts 77°
2026-05-06 22:13 -23.34072 -44.41237 17163 ft 317 kts 68°
2026-05-06 22:13 -23.33134 -44.39073 16786 ft 315 kts 66°
2026-05-06 22:13 -23.32207 -44.36934 16410 ft 313 kts 66°
2026-05-06 22:13 -23.31286 -44.34792 16043 ft 310 kts 66°
2026-05-06 22:14 -23.30376 -44.32671 15662 ft 309 kts 66°
2026-05-06 22:14 -23.29443 -44.30495 15300 ft 306 kts 66°
2026-05-06 22:14 -23.28581 -44.28490 14964 ft 304 kts 66°
2026-05-06 22:14 -23.27670 -44.26370 14597 ft 302 kts 65°
2026-05-06 22:15 -23.26779 -44.24300 14255 ft 300 kts 65°
2026-05-06 22:15 -23.25898 -44.22252 13917 ft 298 kts 65°
2026-05-06 22:15 -23.25026 -44.20226 13524 ft 296 kts 65°
2026-05-06 22:15 -23.24152 -44.18200 13153 ft 294 kts 65°
2026-05-06 22:16 -23.23286 -44.16192 12778 ft 292 kts 65°
2026-05-06 22:16 -23.22442 -44.14235 12424 ft 290 kts 65°
2026-05-06 22:16 -23.21577 -44.12230 12064 ft 287 kts 65°
2026-05-06 22:16 -23.20741 -44.10295 11702 ft 285 kts 65°
2026-05-06 22:17 -23.19901 -44.08348 11338 ft 284 kts 65°
2026-05-06 22:17 -23.19049 -44.06418 10991 ft 282 kts 64°
2026-05-06 22:17 -23.18176 -44.04524 10648 ft 280 kts 63°
2026-05-06 22:17 -23.17295 -44.02635 10298 ft 279 kts 63°
2026-05-06 22:18 -23.16429 -44.00772 9940 ft 277 kts 63°
2026-05-06 22:18 -23.15559 -43.98890 9552 ft 276 kts 64°
2026-05-06 22:18 -23.14739 -43.97020 9165 ft 275 kts 65°
2026-05-06 22:18 -23.13944 -43.95137 8785 ft 273 kts 65°
2026-05-06 22:19 -23.13162 -43.93276 8424 ft 272 kts 65°
2026-05-06 22:19 -23.12635 -43.92029 8166 ft 271 kts 65°
2026-05-06 22:19 -23.11845 -43.90167 7811 ft 270 kts 65°
2026-05-06 22:19 -23.11059 -43.88324 7464 ft 268 kts 65°
2026-05-06 22:20 -23.10274 -43.86489 7135 ft 266 kts 65°
2026-05-06 22:20 -23.09485 -43.84649 7015 ft 266 kts 65°
2026-05-06 22:20 -23.08702 -43.82820 6985 ft 267 kts 65°
2026-05-06 22:20 -23.07932 -43.81025 6982 ft 266 kts 65°
2026-05-06 22:21 -23.07148 -43.79198 6985 ft 267 kts 65°
2026-05-06 22:21 -23.06364 -43.77370 6984 ft 267 kts 65°
2026-05-06 22:21 -23.05582 -43.75547 6981 ft 268 kts 65°
2026-05-06 22:21 -23.04800 -43.73725 6981 ft 267 kts 65°
2026-05-06 22:22 -23.04012 -43.71890 6984 ft 267 kts 65°
2026-05-06 22:22 -23.03228 -43.70066 6976 ft 268 kts 65°
2026-05-06 22:22 -23.02445 -43.68256 6978 ft 268 kts 65°
2026-05-06 22:22 -23.01644 -43.66424 6978 ft 268 kts 65°
2026-05-06 22:23 -23.00846 -43.64607 6981 ft 268 kts 65°
2026-05-06 22:23 -23.00169 -43.63065 6916 ft 266 kts 65°
2026-05-06 22:23 -22.99384 -43.61276 6669 ft 266 kts 65°
2026-05-06 22:23 -22.98588 -43.59466 6323 ft 265 kts 65°
2026-05-06 22:24 -22.97825 -43.57732 6074 ft 261 kts 65°
2026-05-06 22:24 -22.97059 -43.55989 6006 ft 264 kts 65°
2026-05-06 22:24 -22.96271 -43.54199 6004 ft 264 kts 65°
2026-05-06 22:24 -22.95485 -43.52413 5996 ft 256 kts 65°
2026-05-06 22:25 -22.94743 -43.50727 5997 ft 241 kts 65°
2026-05-06 22:25 -22.94052 -43.49128 6001 ft 231 kts 65°
2026-05-06 22:25 -22.93375 -43.47521 5991 ft 236 kts 66°
2026-05-06 22:25 -22.92707 -43.45929 5941 ft 228 kts 66°
2026-05-06 22:26 -22.92064 -43.44402 5863 ft 217 kts 66°
2026-05-06 22:26 -22.91448 -43.42943 5737 ft 208 kts 65°
2026-05-06 22:26 -22.90844 -43.41514 5406 ft 210 kts 65°
2026-05-06 22:26 -22.90220 -43.40041 4941 ft 219 kts 65°
2026-05-06 22:27 -22.89576 -43.38519 4455 ft 227 kts 65°
2026-05-06 22:27 -22.88909 -43.36946 4104 ft 227 kts 65°
2026-05-06 22:27 -22.88255 -43.35394 3743 ft 229 kts 67°
2026-05-06 22:27 -22.87716 -43.33737 3267 ft 235 kts 71°
2026-05-06 22:28 -22.87184 -43.32056 2863 ft 235 kts 70°
2026-05-06 22:28 -22.86655 -43.30403 2583 ft 231 kts 70°
2026-05-06 22:28 -22.86129 -43.28772 2256 ft 227 kts 71°
2026-05-06 22:28 -22.85651 -43.27219 1907 ft 229 kts 76°
2026-05-06 22:29 -22.85558 -43.25476 1571 ft 226 kts 98°
2026-05-06 22:29 -22.85821 -43.23875 1282 ft 206 kts 99°
2026-05-06 22:29 -22.86044 -43.22389 909 ft 193 kts 99°
2026-05-06 22:29 -22.86233 -43.21027 771 ft 172 kts 99°
2026-05-06 22:30 -22.86393 -43.19840 694 ft 146 kts 100°
2026-05-06 22:30 -22.86568 -43.18833 664 ft 135 kts 114°
2026-05-06 22:30 -22.87016 -43.17951 665 ft 136 kts 118°
2026-05-06 22:30 -22.87461 -43.17054 612 ft 129 kts 129°
2026-05-06 22:31 -22.88165 -43.16523 537 ft 123 kts 160°
2026-05-06 22:31 -22.89003 -43.16417 416 ft 124 kts 179°
2026-05-06 22:31 -22.89891 -43.16374 237 ft 129 kts 175°
2026-05-06 22:31 -22.90842 -43.16289 31 ft 132 kts 177°
2026-05-06 22:32 -22.91548 -43.16253 20 ft 46 kts 184°
2026-05-06 22:32 -22.91591 -43.16279 21 ft 4 kts 259°
2026-05-06 22:32 -22.91577 -43.16308 21 ft 7 kts 309°
2026-05-06 22:32 -22.91536 -43.16364 20 ft 11 kts 309°
2026-05-06 22:33 -22.91478 -43.16429 21 ft 13 kts 319°
2026-05-06 22:33 -22.91399 -43.16495 22 ft 15 kts 349°
2026-05-06 22:33 -22.91285 -43.16507 23 ft 18 kts 354°
2026-05-06 22:33 -22.91216 -43.16523 23 ft 4 kts 318°
2026-05-06 22:34 -22.91208 -43.16560 24 ft 6 kts 256°
2026-05-06 22:34 -22.91210 -43.16583 22 ft 0 kts 272°